When you browse on this site, cookies collect data to enhance your experience and personalize the content and advertising you see.
Visit our Privacy Policy to learn more. By continuing to use the site, you agree to this use of cookies and data.
  • In United Kingdom
  • List of Countries
  • For 7 days
  • Water Temperature
  • Satellite Maps
  • Weather Map
  • Weather Widgets
  • user-avatar
    Login

    Hourly Weather Durres

    Today, 23 February, Saturday

    Time Temperature Precipitation Wind Pressure Humidity
    00:00 +8°C° 0 mm 5 mps 760 mmHg 65%
    01:00 +8°C° 0 mm 6 mps 760 mmHg 65%
    02:00 +6°C° 0.1 mm 8 mps 760 mmHg 64%
    03:00 +6°C° 0.1 mm 10 mps 760 mmHg 63%
    04:00 +4°C° 0.1 mm 12 mps 760 mmHg 63%
    05:00 +3°C° 1.1 mm 12 mps 760 mmHg 60%
    06:00 +2°C° 1.1 mm 12 mps 760 mmHg 58%
    07:00 0°C° 1.1 mm 12 mps 760 mmHg 55%
    08:00 0°C° 0.2 mm 12 mps 760 mmHg 53%
    09:00 0°C° 0.2 mm 12 mps 760 mmHg 52%
    10:00 +2°C° 0.2 mm 11 mps 761 mmHg 50%
    11:00 +3°C° 0.1 mm 11 mps 761 mmHg 47%
    12:00 +5°C° 0.1 mm 10 mps 761 mmHg 44%
    13:00 +6°C° 0.1 mm 9 mps 762 mmHg 41%
    14:00 +5°C° 0 mm 9 mps 762 mmHg 43%
    15:00 +5°C° 0 mm 9 mps 762 mmHg 44%
    16:00 +5°C° 0 mm 9 mps 763 mmHg 45%
    17:00 +3°C° 0 mm 9 mps 764 mmHg 46%
    18:00 +2°C° 0 mm 9 mps 764 mmHg 47%
    19:00 +1°C° 0 mm 8 mps 765 mmHg 48%
    20:00 +1°C° 0 mm 8 mps 766 mmHg 48%
    21:00 0°C° 0 mm 8 mps 766 mmHg 49%
    22:00 -1°C° 0 mm 8 mps 766 mmHg 49%
    23:00 -1°C° 0 mm 8 mps 766 mmHg 48%

    Tomorrow, 24 February, Sunday

    Time Temperature Precipitation Wind Pressure Humidity
    00:00 -1°C° 0 mm 8 mps 766 mmHg 47%
    01:00 -1°C° 0 mm 8 mps 767 mmHg 46%
    02:00 -2°C° 0 mm 8 mps 767 mmHg 45%
    03:00 -2°C° 0 mm 8 mps 767 mmHg 45%
    04:00 -2°C° 0 mm 8 mps 767 mmHg 44%
    05:00 -2°C° 0 mm 8 mps 767 mmHg 43%
    06:00 -2°C° 0 mm 8 mps 767 mmHg 42%
    07:00 -2°C° 0 mm 8 mps 767 mmHg 41%
    08:00 0°C° 0 mm 8 mps 767 mmHg 38%
    09:00 +2°C° 0 mm 8 mps 767 mmHg 35%
    10:00 +5°C° 0 mm 8 mps 768 mmHg 32%
    11:00 +6°C° 0 mm 7 mps 767 mmHg 31%
    12:00 +8°C° 0 mm 7 mps 767 mmHg 31%
    13:00 +9°C° 0 mm 7 mps 767 mmHg 30%
    14:00 +9°C° 0 mm 7 mps 767 mmHg 32%
    15:00 +8°C° 0 mm 7 mps 767 mmHg 34%
    16:00 +7°C° 0 mm 8 mps 767 mmHg 36%
    17:00 +5°C° 0 mm 8 mps 767 mmHg 40%
    18:00 +4°C° 0 mm 8 mps 768 mmHg 43%
    19:00 +1°C° 0 mm 8 mps 768 mmHg 47%
    20:00 +1°C° 0 mm 8 mps 769 mmHg 47%
    21:00 0°C° 0 mm 8 mps 769 mmHg 47%
    22:00 0°C° 0 mm 8 mps 769 mmHg 47%
    23:00 -1°C° 0 mm 8 mps 769 mmHg 46%

    Day after tomorrow, 25 February, Monday

    Time Temperature Precipitation Wind Pressure Humidity
    00:00 -1°C° 0 mm 7 mps 769 mmHg 45%
    01:00 -1°C° 0 mm 7 mps 769 mmHg 44%
    02:00 -1°C° 0 mm 7 mps 769 mmHg 43%
    03:00 -1°C° 0 mm 7 mps 768 mmHg 41%
    04:00 -2°C° 0 mm 7 mps 768 mmHg 40%
    05:00 -1°C° 0 mm 7 mps 768 mmHg 38%
    06:00 -1°C° 0 mm 7 mps 768 mmHg 36%
    07:00 -1°C° 0 mm 7 mps 768 mmHg 35%
    08:00 +2°C° 0 mm 7 mps 768 mmHg 33%
    09:00 +4°C° 0 mm 7 mps 768 mmHg 32%
    10:00 +6°C° 0 mm 7 mps 768 mmHg 30%
    11:00 +9°C° 0 mm 7 mps 768 mmHg 32%
    12:00 +10°C° 0 mm 7 mps 768 mmHg 33%
    13:00 +13°C° 0 mm 6 mps 767 mmHg 34%
    14:00 +12°C° 0 mm 7 mps 767 mmHg 36%
    15:00 +12°C° 0 mm 7 mps 767 mmHg 38%
    16:00 +12°C° 0 mm 7 mps 767 mmHg 40%
    17:00 +10°C° 0 mm 7 mps 767 mmHg 45%
    18:00 +7°C° 0 mm 8 mps 768 mmHg 50%
    19:00 +5°C° 0 mm 8 mps 768 mmHg 55%
    20:00 +4°C° 0 mm 8 mps 768 mmHg 55%
    21:00 +4°C° 0 mm 8 mps 768 mmHg 56%
    22:00 +2°C° 0 mm 8 mps 769 mmHg 56%
    23:00 +2°C° 0 mm 8 mps 769 mmHg 56%

    26 February, Tuesday

    Time Temperature Precipitation Wind Pressure Humidity
    00:00 +2°C° 0 mm 8 mps 768 mmHg 55%
    01:00 +2°C° 0 mm 8 mps 768 mmHg 55%
    02:00 +2°C° 0 mm 8 mps 768 mmHg 54%
    03:00 +2°C° 0 mm 7 mps 768 mmHg 53%
    04:00 +2°C° 0 mm 7 mps 768 mmHg 52%
    05:00 +3°C° 0 mm 7 mps 768 mmHg 52%
    06:00 +3°C° 0 mm 6 mps 768 mmHg 51%
    07:00 +3°C° 0 mm 6 mps 767 mmHg 50%
    08:00 +5°C° 0 mm 6 mps 767 mmHg 44%
    09:00 +9°C° 0 mm 6 mps 767 mmHg 38%
    10:00 +13°C° 0 mm 6 mps 767 mmHg 31%
    11:00 +14°C° 0 mm 6 mps 767 mmHg 30%
    12:00 +15°C° 0 mm 6 mps 767 mmHg 28%
    13:00 +17°C° 0 mm 6 mps 766 mmHg 27%
    14:00 +16°C° 0 mm 7 mps 766 mmHg 30%
    15:00 +16°C° 0 mm 7 mps 766 mmHg 34%
    16:00 +16°C° 0 mm 8 mps 765 mmHg 37%
    17:00 +13°C° 0 mm 8 mps 766 mmHg 43%
    18:00 +11°C° 0 mm 8 mps 766 mmHg 49%
    19:00 +9°C° 0 mm 8 mps 766 mmHg 55%
    20:00 +9°C° 0 mm 7 mps 766 mmHg 54%
    21:00 +8°C° 0 mm 6 mps 766 mmHg 53%
    22:00 +8°C° 0 mm 5 mps 765 mmHg 52%
    23:00 +7°C° 0 mm 4 mps 765 mmHg 51%

    27 February, Wednesday

    Time Temperature Precipitation Wind Pressure Humidity
    00:00 +7°C° 0 mm 4 mps 765 mmHg 51%
    01:00 +8°C° 0 mm 3 mps 764 mmHg 50%
    02:00 +8°C° 0 mm 2 mps 764 mmHg 50%
    03:00 +7°C° 0 mm 2 mps 763 mmHg 50%
    04:00 +7°C° 0 mm 2 mps 763 mmHg 50%
    05:00 +7°C° 0 mm 2 mps 763 mmHg 51%
    06:00 +8°C° 0 mm 2 mps 763 mmHg 51%
    07:00 +8°C° 0 mm 3 mps 763 mmHg 52%
    08:00 +10°C° 0 mm 4 mps 762 mmHg 48%
    09:00 +13°C° 0 mm 5 mps 762 mmHg 43%
    10:00 +15°C° 0 mm 6 mps 762 mmHg 39%
    11:00 +16°C° 0 mm 7 mps 762 mmHg 33%
    12:00 +17°C° 0 mm 8 mps 762 mmHg 27%
    13:00 +18°C° 0 mm 9 mps 762 mmHg 22%
    14:00 +17°C° 0 mm 9 mps 762 mmHg 24%
    15:00 +16°C° 0 mm 9 mps 762 mmHg 26%
    16:00 +16°C° 0 mm 9 mps 762 mmHg 28%
    17:00 +13°C° 0 mm 9 mps 762 mmHg 31%
    18:00 +11°C° 0 mm 9 mps 763 mmHg 35%
    19:00 +10°C° 0 mm 9 mps 763 mmHg 38%
    20:00 +8°C° 0 mm 9 mps 764 mmHg 41%
    21:00 +7°C° 0 mm 9 mps 764 mmHg 44%
    22:00 +6°C° 0 mm 10 mps 765 mmHg 47%
    23:00 +6°C° 0 mm 9 mps 765 mmHg 49%

    28 February, Thursday

    Time Temperature Precipitation Wind Pressure Humidity
    00:00 +6°C° 0 mm 8 mps 765 mmHg 51%
    01:00 +5°C° 0 mm 7 mps 765 mmHg 54%
    02:00 +5°C° 0 mm 7 mps 765 mmHg 55%
    03:00 +5°C° 0 mm 6 mps 765 mmHg 56%
    04:00 +5°C° 0 mm 6 mps 765 mmHg 57%
    05:00 +6°C° 0 mm 5 mps 765 mmHg 58%
    06:00 +6°C° 0 mm 4 mps 766 mmHg 59%
    07:00 +6°C° 0 mm 4 mps 766 mmHg 60%
    08:00 +9°C° 0 mm 3 mps 766 mmHg 52%
    09:00 +12°C° 0 mm 2 mps 766 mmHg 45%
    10:00 +15°C° 0 mm 1 mps 766 mmHg 37%
    11:00 +15°C° 0 mm 1 mps 766 mmHg 36%
    12:00 +16°C° 0 mm 2 mps 765 mmHg 35%
    13:00 +16°C° 0 mm 2 mps 765 mmHg 33%
    14:00 +16°C° 0 mm 2 mps 765 mmHg 36%
    15:00 +15°C° 0 mm 2 mps 765 mmHg 39%
    16:00 +15°C° 0 mm 2 mps 764 mmHg 41%
    17:00 +13°C° 0 mm 1 mps 765 mmHg 46%
    18:00 +12°C° 0 mm 1 mps 765 mmHg 51%
    19:00 +9°C° 0 mm 0 mps 765 mmHg 56%
    20:00 +10°C° 0 mm 1 mps 765 mmHg 56%
    21:00 +10°C° 0 mm 1 mps 765 mmHg 57%
    22:00 +8°C° 0 mm 2 mps 765 mmHg 57%
    23:00 +8°C° 0 mm 2 mps 765 mmHg 57%
    Show more